Location: Ar Ranvel
(48.3000°N, 4.8833°W)
Time: 14:39:53
(UTC+00:00)

Cosmos 1725 Rocket - Pass Details

Date: 16 June 2021
Orbit: 962 x 990 km, 82.9° (Epoch: 04 August)

Event Time Altitude Azimuth Distance (km) Brightness Sun altitude
Rises 22:13:52 0° 351° (N) 3,662 8.5 -12.9°
Reaches altitude 10° 22:16:23 10° 352° (N) 2,710 7.5 -13.1°
Maximum altitude 22:22:36 84° 80° (E) 974 4.0 -13.6°
Enters shadow 22:27:20 18° 170° (S) 2,162 5.2 -14.0°
